EW2349 Weather Reports


Display with metric or nautical units.
time (UTC)temp
F
wind
direction
speed
MPH
gust
MPH
rain 1hr
in
rain 24hr
in
rain mn
in
humidity
%
barometer
mb
20260502184550 65 360 16.0 23.0 0.00 0.00 0.00 35 1013.6
20260502183042 65 13 16.0 23.0 0.00 0.00 0.00 35 1013.6
20260502181545 64 16 14.0 23.0 0.00 0.00 0.00 36 1013.6
20260502163038 61 5 16.0 22.0 0.00 0.00 0.00 40 1013.3
20260502161525 61 13 15.0 24.0 0.00 0.00 0.00 40 1013.2
20260502151525 58 5 11.0 21.0 0.00 0.00 0.00 48 1012.9
20260502123052 48 360 6.0 11.0 0.00 0.00 0.00 62 1012.5
20260502121546 47 360 6.0 10.0 0.00 0.00 0.00 62 1012.5
20260502114538 46 360 8.0 12.0 0.00 0.00 0.00 61 1012.4
20260502113037 46 360 9.0 13.0 0.00 0.00 0.00 60 1012.6
20260502111539 46 360 9.0 13.0 0.00 0.00 0.00 60 1012.4
20260502110036 46 360 8.0 14.0 0.00 0.00 0.00 60 1012.5
20260502104536 46 360 9.0 12.0 0.00 0.00 0.00 60 1012.4
20260502103028 47 360 8.0 11.0 0.00 0.00 0.00 58 1012.1
20260502101527 47 360 6.0 11.0 0.00 0.00 0.00 57 1011.7
20260502091519 48 360 6.0 11.0 0.00 0.00 0.00 55 1011.7
20260502070055 54 360 10.0 17.0 0.00 0.00 0.00 43 1011.8
20260502064600 54 224 9.0 16.0 0.00 0.00 0.00 42 1011.7
20260502063049 54 360 9.0 15.0 0.00 0.00 0.00 41 1011.8
20260502061553 54 236 8.0 16.0 0.00 0.00 0.00 41 1011.9
20260502060041 53 226 7.0 15.0 0.00 0.00 0.00 41 1012.0
20260502054539 52 227 5.0 9.0 0.00 0.00 0.00 43 1012.0
20260502053038 52 360 4.0 10.0 0.00 0.00 0.00 41 1012.3
20260502051535 50 360 0.0 5.0 0.00 0.00 0.00 41 1012.4
20260502050034 51 194 4.0 11.0 0.00 0.00 0.00 40 1012.7
20260502044531 48 360 5.0 8.0 0.00 0.00 0.00 42 1012.8
20260502043030 48 360 1.0 6.0 0.00 0.00 0.00 44 1012.9
20260502041531 48 360 5.0 8.0 0.00 0.00 0.00 41 1013.1
20260502040027 49 360 5.0 11.0 0.00 0.00 0.00 41 1013.2
20260502034525 48 360 5.0 10.0 0.00 0.00 0.00 43 1013.3
20260502033027 49 360 3.0 9.0 0.00 0.00 0.00 43 1013.3
20260502031523 49 360 4.0 8.0 0.00 0.00 0.00 42 1013.4
20260502030024 50 360 4.0 8.0 0.00 0.00 0.00 43 1013.4
20260502024523 51 360 4.0 8.0 0.00 0.00 0.00 42 1013.5
20260502023021 52 360 4.0 7.0 0.00 0.00 0.00 41 1013.5
20260502021519 56 360 3.0 6.0 0.00 0.00 0.00 37 1013.6
20260502020018 59 227 3.0 5.0 0.00 0.00 0.00 32 1013.7
20260502014516 62 227 2.0 5.0 0.00 0.00 0.00 28 1013.9
20260502013014 64 227 2.0 4.0 0.00 0.00 0.00 25 1014.0
20260502011514 66 227 2.0 7.0 0.00 0.00 0.00 23 1014.2
20260502010011 67 360 3.0 11.0 0.00 0.00 0.00 22 1014.4
20260502004511 68 360 7.0 12.0 0.00 0.00 0.00 19 1014.5
20260502003012 68 222 4.0 9.0 0.00 0.00 0.00 19 1014.6
20260502001508 69 360 4.0 9.0 0.00 0.00 0.00 19 1014.8
20260502000014 69 360 5.0 10.0 0.00 0.00 0.00 19 1014.9
20260501234506 70 360 5.0 11.0 0.00 0.00 0.00 19 1015.0
20260501233003 70 234 5.0 12.0 0.00 0.00 0.00 18 1015.1
20260501231502 71 360 5.0 12.0 0.00 0.00 0.00 19 1015.2
20260501224556 71 223 3.0 13.0 0.00 0.00 0.00 19 1015.5
20260501223104 71 360 4.0 10.0 0.00 0.00 0.00 18 1015.5
20260501221553 71 360 5.0 13.0 0.00 0.00 0.00 20 1015.7
20260501220055 70 360 5.0 11.0 0.00 0.00 0.00 19 1015.8
20260501214555 70 360 6.0 13.0 0.00 0.00 0.00 20 1016.1
20260501213048 70 360 5.0 13.0 0.00 0.00 0.00 18 1016.3
20260501211553 70 360 5.0 14.0 0.00 0.00 0.00 19 1016.4
20260501210048 70 360 5.0 20.0 0.00 0.00 0.00 19 1016.7
20260501204614 69 360 6.0 13.0 0.00 0.00 0.00 21 1016.9
20260501203040 69 226 4.0 13.0 0.00 0.00 0.00 21 1017.1
20260501201535 68 360 6.0 18.0 0.00 0.00 0.00 22 1017.1
20260501200034 67 360 0.0 8.0 0.00 0.00 0.00 20 1017.2
20260501194529 68 360 5.0 14.0 0.00 0.00 0.00 23 1017.5
20260501193029 68 360 7.0 13.0 0.00 0.00 0.00 22 1017.6
20260501191526 67 232 4.0 10.0 0.00 0.00 0.00 22 1017.6
20260501190022 66 360 4.0 13.0 0.00 0.00 0.00 23 1017.8